| time (UTC) | temp C | wind direction | speed KPH | gust KPH | rain 1hr cm | rain 24hr cm | rain mn cm | humidity % | barometer mb |
| 20260504110418 | 8 | 98 | 0.0 | 3.2 | 0.00 | 0.00 | 0.00 | 71 | 1015.8 |
| 20260504110137 | 7 | 123 | 0.0 | 3.2 | 0.00 | 0.00 | 0.00 | 76 | 1015.8 |
| 20260504100411 | 9 | 159 | 1.6 | 4.8 | 0.00 | 0.00 | 0.00 | 62 | 1015.5 |
| 20260504081856 | 10 | 161 | 3.2 | 8.0 | 0.00 | 0.00 | 0.00 | 63 | 1015.8 |
| 20260504081356 | 9 | 153 | 3.2 | 6.4 | 0.00 | 0.00 | 0.00 | 64 | 1015.8 |
| 20260504080855 | 8 | 137 | 1.6 | 4.8 | 0.00 | 0.00 | 0.00 | 69 | 1015.8 |
| 20260504080350 | 7 | 134 | 0.0 | 3.2 | 0.00 | 0.00 | 0.00 | 81 | 1015.8 |
| 20260504070344 | 7 | 223 | 0.0 | 0.0 | 0.00 | 0.00 | 0.00 | 86 | 1015.8 |
| 20260504050326 | 9 | 132 | 1.6 | 3.2 | 0.00 | 0.00 | 0.00 | 65 | 1016.0 |
| 20260504045324 | 8 | 121 | 1.6 | 3.2 | 0.00 | 0.00 | 0.00 | 72 | 1015.9 |
| 20260504044824 | 7 | 102 | 0.0 | 3.2 | 0.00 | 0.00 | 0.00 | 77 | 1016.0 |
| 20260504044324 | 7 | 80 | 0.0 | 3.2 | 0.00 | 0.00 | 0.00 | 79 | 1016.0 |
| 20260504043822 | 7 | 80 | 0.0 | 3.2 | 0.00 | 0.00 | 0.00 | 80 | 1015.9 |
| 20260504043322 | 6 | 80 | 1.6 | 3.2 | 0.00 | 0.00 | 0.00 | 80 | 1015.8 |
| 20260504042821 | 6 | 80 | 1.6 | 3.2 | 0.00 | 0.00 | 0.00 | 81 | 1015.8 |
| 20260504042320 | 6 | 88 | 0.0 | 3.2 | 0.00 | 0.00 | 0.00 | 83 | 1015.9 |
| 20260504041820 | 6 | 103 | 0.0 | 0.0 | 0.00 | 0.00 | 0.00 | 83 | 1015.8 |
| 20260504041324 | 5 | 103 | 0.0 | 0.0 | 0.00 | 0.00 | 0.00 | 86 | 1015.8 |
| 20260504040818 | 5 | 103 | 0.0 | 0.0 | 0.00 | 0.00 | 0.00 | 86 | 1015.7 |
| 20260504040549 | 5 | 103 | 0.0 | 0.0 | 0.00 | 0.00 | 0.00 | 86 | 1015.6 |
| 20260504040045 | 5 | 103 | 0.0 | 1.6 | 0.00 | 0.00 | 0.00 | 85 | 1015.6 |
| 20260504035314 | 6 | 103 | 0.0 | 1.6 | 0.00 | 0.00 | 0.00 | 84 | 1015.7 |
| 20260504034814 | 6 | 103 | 0.0 | 3.2 | 0.00 | 0.00 | 0.00 | 83 | 1015.7 |
| 20260504034309 | 5 | 103 | 0.0 | 3.2 | 0.00 | 0.00 | 0.00 | 83 | 1015.8 |
| 20260504033809 | 5 | 103 | 0.0 | 3.2 | 0.00 | 0.00 | 0.00 | 85 | 1015.8 |
| 20260504033311 | 5 | 103 | 0.0 | 3.2 | 0.00 | 0.00 | 0.00 | 84 | 1015.7 |
| 20260504032807 | 5 | 104 | 0.0 | 3.2 | 0.00 | 0.00 | 0.00 | 84 | 1015.7 |
| 20260504032307 | 5 | 103 | 1.6 | 1.6 | 0.00 | 0.00 | 0.00 | 82 | 1015.6 |
| 20260504031805 | 5 | 103 | 1.6 | 3.2 | 0.00 | 0.00 | 0.00 | 82 | 1015.7 |
| 20260504031258 | 5 | 103 | 0.0 | 3.2 | 0.00 | 0.00 | 0.00 | 84 | 1015.7 |
| 20260504031025 | 5 | 98 | 0.0 | 3.2 | 0.00 | 0.00 | 0.00 | 83 | 1015.7 |
| 20260504030259 | 5 | 99 | 0.0 | 0.0 | 0.00 | 0.00 | 0.00 | 83 | 1015.9 |
| 20260504025758 | 5 | 99 | 0.0 | 0.0 | 0.00 | 0.00 | 0.00 | 84 | 1015.9 |
| 20260504025258 | 5 | 99 | 0.0 | 0.0 | 0.00 | 0.00 | 0.00 | 83 | 1015.8 |
| 20260504025240 | 5 | 99 | 0.0 | 0.0 | 0.00 | 0.00 | 0.00 | 82 | 1015.8 |
| 20260504024259 | 5 | 99 | 0.0 | 1.6 | 0.00 | 0.00 | 0.00 | 82 | 1015.8 |
| 20260504023759 | 5 | 99 | 0.0 | 1.6 | 0.00 | 0.00 | 0.00 | 81 | 1015.7 |
| 20260504023259 | 5 | 99 | 0.0 | 1.6 | 0.00 | 0.00 | 0.00 | 81 | 1015.8 |
| 20260504022758 | 6 | 99 | 0.0 | 3.2 | 0.00 | 0.00 | 0.00 | 79 | 1015.8 |
| 20260504022258 | 6 | 99 | 0.0 | 3.2 | 0.00 | 0.00 | 0.00 | 79 | 1015.7 |
| 20260504021758 | 6 | 99 | 0.0 | 3.2 | 0.00 | 0.00 | 0.00 | 80 | 1015.8 |
| 20260504021259 | 6 | 100 | 0.0 | 3.2 | 0.00 | 0.00 | 0.00 | 78 | 1015.8 |
| 20260504020759 | 6 | 100 | 0.0 | 3.2 | 0.00 | 0.00 | 0.00 | 77 | 1015.8 |
| 20260504020259 | 6 | 103 | 0.0 | 0.0 | 0.00 | 0.00 | 0.00 | 76 | 1015.7 |
| 20260504015759 | 6 | 103 | 0.0 | 3.2 | 0.00 | 0.00 | 0.00 | 74 | 1015.7 |
| 20260504015259 | 7 | 103 | 0.0 | 3.2 | 0.00 | 0.00 | 0.00 | 74 | 1015.6 |
| 20260504014758 | 7 | 103 | 1.6 | 3.2 | 0.00 | 0.00 | 0.00 | 73 | 1015.4 |
| 20260504014258 | 7 | 102 | 1.6 | 3.2 | 0.00 | 0.00 | 0.00 | 70 | 1015.5 |
| 20260504013756 | 7 | 98 | 0.0 | 3.2 | 0.00 | 0.00 | 0.00 | 70 | 1015.5 |
| 20260504013300 | 7 | 90 | 1.6 | 3.2 | 0.00 | 0.00 | 0.00 | 69 | 1015.5 |
| 20260504012755 | 8 | 90 | 1.6 | 3.2 | 0.00 | 0.00 | 0.00 | 68 | 1015.4 |
| 20260504012254 | 8 | 90 | 1.6 | 3.2 | 0.00 | 0.00 | 0.00 | 67 | 1015.5 |
| 20260504011753 | 8 | 88 | 1.6 | 3.2 | 0.00 | 0.00 | 0.00 | 67 | 1015.4 |
| 20260504011253 | 8 | 95 | 1.6 | 3.2 | 0.00 | 0.00 | 0.00 | 66 | 1015.4 |
| 20260504010756 | 8 | 96 | 1.6 | 3.2 | 0.00 | 0.00 | 0.00 | 65 | 1015.4 |
| 20260504010251 | 9 | 89 | 1.6 | 1.6 | 0.00 | 0.00 | 0.00 | 63 | 1015.3 |
| 20260504005751 | 9 | 82 | 0.0 | 1.6 | 0.00 | 0.00 | 0.00 | 61 | 1015.3 |
| 20260504005250 | 9 | 68 | 0.0 | 3.2 | 0.00 | 0.00 | 0.00 | 63 | 1015.3 |
| 20260504004748 | 9 | 72 | 1.6 | 3.2 | 0.00 | 0.00 | 0.00 | 65 | 1015.2 |
| 20260504004248 | 9 | 144 | 1.6 | 3.2 | 0.00 | 0.00 | 0.00 | 66 | 1015.2 |
| 20260504003748 | 10 | 108 | 1.6 | 3.2 | 0.00 | 0.00 | 0.00 | 62 | 1015.1 |
| 20260504003242 | 10 | 96 | 1.6 | 3.2 | 0.00 | 0.00 | 0.00 | 59 | 1015.1 |
| 20260504002742 | 10 | 96 | 1.6 | 3.2 | 0.00 | 0.00 | 0.00 | 59 | 1015.0 |
| 20260504002241 | 10 | 84 | 0.0 | 3.2 | 0.00 | 0.00 | 0.00 | 58 | 1015.0 |
| 20260504001741 | 10 | 84 | 0.0 | 3.2 | 0.00 | 0.00 | 0.00 | 58 | 1015.0 |
| 20260504001510 | 11 | 80 | 0.0 | 3.2 | 0.00 | 0.00 | 0.00 | 56 | 1015.0 |
| 20260504000745 | 12 | 67 | 0.0 | 1.6 | 0.00 | 0.00 | 0.00 | 52 | 1014.9 |
| 20260504000238 | 12 | 67 | 0.0 | 1.6 | 0.00 | 0.00 | 0.00 | 51 | 1014.9 |
| 20260503235739 | 12 | 67 | 0.0 | 1.6 | 0.00 | 0.00 | 0.00 | 50 | 1014.9 |
| 20260503235503 | 13 | 67 | 0.0 | 0.0 | 0.00 | 0.00 | 0.00 | 44 | 1014.9 |
| 20260503234733 | 13 | 67 | 0.0 | 3.2 | 0.00 | 0.00 | 0.00 | 46 | 1014.7 |
| 20260503234231 | 13 | 67 | 0.0 | 3.2 | 0.00 | 0.00 | 0.00 | 51 | 1014.7 |
| 20260503233729 | 14 | 67 | 0.0 | 3.2 | 0.00 | 0.00 | 0.00 | 41 | 1014.7 |
| 20260503233229 | 14 | 67 | 0.0 | 3.2 | 0.00 | 0.00 | 0.00 | 49 | 1014.6 |
| 20260503232949 | 15 | 61 | 0.0 | 3.2 | 0.00 | 0.00 | 0.00 | 56 | 1014.6 |
| 20260503232453 | 16 | 60 | 0.0 | 3.2 | 0.00 | 0.00 | 0.00 | 37 | 1014.6 |
| 20260503231947 | 16 | 60 | 0.0 | 3.2 | 0.00 | 0.00 | 0.00 | 38 | 1014.6 |
| 20260503231226 | 16 | 34 | 0.0 | 3.2 | 0.00 | 0.00 | 0.00 | 41 | 1014.6 |
| 20260503230730 | 17 | 34 | 0.0 | 3.2 | 0.00 | 0.00 | 0.00 | 34 | 1014.5 |
| 20260503230224 | 17 | 20 | 0.0 | 3.2 | 0.00 | 0.00 | 0.00 | 29 | 1014.4 |
| 20260503225724 | 17 | 277 | 0.0 | 6.4 | 0.00 | 0.00 | 0.00 | 30 | 1014.5 |
| 20260503225223 | 17 | 263 | 1.6 | 6.4 | 0.00 | 0.00 | 0.00 | 32 | 1014.5 |
| 20260503224722 | 17 | 270 | 3.2 | 6.4 | 0.00 | 0.00 | 0.00 | 29 | 1014.4 |
| 20260503224222 | 17 | 301 | 3.2 | 6.4 | 0.00 | 0.00 | 0.00 | 32 | 1014.5 |
| 20260503223722 | 17 | 306 | 3.2 | 11.3 | 0.00 | 0.00 | 0.00 | 28 | 1014.6 |
| 20260503223220 | 17 | 313 | 3.2 | 11.3 | 0.00 | 0.00 | 0.00 | 33 | 1014.6 |
| 20260503222720 | 17 | 16 | 4.8 | 11.3 | 0.00 | 0.00 | 0.00 | 31 | 1014.6 |
| 20260503222224 | 17 | 301 | 6.4 | 12.9 | 0.00 | 0.00 | 0.00 | 27 | 1014.7 |
| 20260503221718 | 17 | 238 | 4.8 | 12.9 | 0.00 | 0.00 | 0.00 | 29 | 1014.7 |
| 20260503221218 | 17 | 235 | 3.2 | 11.3 | 0.00 | 0.00 | 0.00 | 29 | 1014.7 |
| 20260503220943 | 17 | 182 | 4.8 | 11.3 | 0.00 | 0.00 | 0.00 | 28 | 1014.8 |
| 20260503220216 | 17 | 177 | 4.8 | 11.3 | 0.00 | 0.00 | 0.00 | 30 | 1014.7 |
| 20260503215716 | 17 | 138 | 3.2 | 11.3 | 0.00 | 0.00 | 0.00 | 30 | 1014.7 |
| 20260503215216 | 17 | 128 | 4.8 | 11.3 | 0.00 | 0.00 | 0.00 | 27 | 1014.7 |
| 20260503214714 | 17 | 273 | 8.0 | 11.3 | 0.00 | 0.00 | 0.00 | 29 | 1014.7 |
| 20260503214214 | 17 | 295 | 6.4 | 11.3 | 0.00 | 0.00 | 0.00 | 31 | 1014.7 |
| 20260503213719 | 17 | 251 | 4.8 | 12.9 | 0.00 | 0.00 | 0.00 | 30 | 1014.7 |
| 20260503213212 | 17 | 247 | 4.8 | 12.9 | 0.00 | 0.00 | 0.00 | 30 | 1014.8 |
| 20260503212712 | 17 | 237 | 4.8 | 12.9 | 0.00 | 0.00 | 0.00 | 29 | 1014.9 |
| 20260503212429 | 17 | 223 | 4.8 | 16.1 | 0.00 | 0.00 | 0.00 | 34 | 1014.9 |
| 20260503211710 | 17 | 306 | 4.8 | 16.1 | 0.00 | 0.00 | 0.00 | 31 | 1014.9 |
| 20260503211211 | 17 | 305 | 8.0 | 16.1 | 0.00 | 0.00 | 0.00 | 29 | 1014.9 |
| 20260503210710 | 17 | 290 | 9.7 | 16.1 | 0.00 | 0.00 | 0.00 | 33 | 1014.9 |
| 20260503210208 | 17 | 277 | 9.7 | 22.5 | 0.00 | 0.00 | 0.00 | 31 | 1014.9 |
| 20260503205931 | 17 | 287 | 9.7 | 22.5 | 0.00 | 0.00 | 0.00 | 31 | 1014.9 |
| 20260503205212 | 17 | 40 | 11.3 | 24.1 | 0.00 | 0.00 | 0.00 | 30 | 1014.9 |
| 20260503204706 | 17 | 266 | 11.3 | 24.1 | 0.00 | 0.00 | 0.00 | 30 | 1015.0 |
| 20260503204206 | 17 | 240 | 6.4 | 17.7 | 0.00 | 0.00 | 0.00 | 31 | 1015.0 |
| 20260503203706 | 17 | 263 | 8.0 | 19.3 | 0.00 | 0.00 | 0.00 | 31 | 1015.1 |
| 20260503203420 | 17 | 288 | 9.7 | 19.3 | 0.00 | 0.00 | 0.00 | 30 | 1015.1 |
| 20260503202702 | 17 | 281 | 9.7 | 19.3 | 0.00 | 0.00 | 0.00 | 30 | 1015.2 |
| 20260503202201 | 16 | 313 | 9.7 | 19.3 | 0.00 | 0.00 | 0.00 | 32 | 1015.3 |
| 20260503201700 | 16 | 284 | 9.7 | 19.3 | 0.00 | 0.00 | 0.00 | 31 | 1015.2 |
| 20260503201200 | 16 | 213 | 6.4 | 19.3 | 0.00 | 0.00 | 0.00 | 34 | 1015.3 |
| 20260503200659 | 16 | 287 | 4.8 | 11.3 | 0.00 | 0.00 | 0.00 | 33 | 1015.5 |
| 20260503200158 | 16 | 343 | 6.4 | 19.3 | 0.00 | 0.00 | 0.00 | 31 | 1015.5 |
| 20260503195658 | 16 | 245 | 6.4 | 19.3 | 0.00 | 0.00 | 0.00 | 32 | 1015.6 |
| 20260503195203 | 16 | 189 | 6.4 | 20.9 | 0.00 | 0.00 | 0.00 | 33 | 1015.7 |
| 20260503194655 | 16 | 227 | 6.4 | 20.9 | 0.00 | 0.00 | 0.00 | 34 | 1015.8 |
| 20260503194155 | 16 | 347 | 3.2 | 17.7 | 0.00 | 0.00 | 0.00 | 33 | 1015.8 |
| 20260503193656 | 15 | 269 | 3.2 | 22.5 | 0.00 | 0.00 | 0.00 | 36 | 1015.9 |
| 20260503193156 | 15 | 53 | 8.0 | 22.5 | 0.00 | 0.00 | 0.00 | 33 | 1016.1 |
| 20260503192700 | 15 | 319 | 11.3 | 22.5 | 0.00 | 0.00 | 0.00 | 36 | 1016.2 |
| 20260503192154 | 16 | 298 | 12.9 | 22.5 | 0.00 | 0.00 | 0.00 | 32 | 1016.3 |
| 20260503191921 | 16 | 302 | 6.4 | 20.9 | 0.00 | 0.00 | 0.00 | 34 | 1016.3 |
| 20260503191153 | 16 | 307 | 4.8 | 20.9 | 0.00 | 0.00 | 0.00 | 39 | 1016.3 |
| 20260503190652 | 16 | 276 | 9.7 | 29.0 | 0.00 | 0.00 | 0.00 | 35 | 1016.4 |
| 20260503190151 | 15 | 258 | 11.3 | 29.0 | 0.00 | 0.00 | 0.00 | 33 | 1016.5 |
| 20260503185657 | 15 | 277 | 12.9 | 29.0 | 0.00 | 0.00 | 0.00 | 36 | 1016.6 |
| 20260503185146 | 15 | 254 | 11.3 | 29.0 | 0.00 | 0.00 | 0.00 | 35 | 1016.5 |
| 20260503184646 | 16 | 319 | 4.8 | 12.9 | 0.00 | 0.00 | 0.00 | 34 | 1016.6 |
| 20260503184151 | 16 | 157 | 6.4 | 24.1 | 0.00 | 0.00 | 0.00 | 36 | 1016.7 |
| 20260503183905 | 15 | 316 | 6.4 | 24.1 | 0.00 | 0.00 | 0.00 | 36 | 1016.8 |
| 20260503183142 | 15 | 345 | 9.7 | 24.1 | 0.00 | 0.00 | 0.00 | 39 | 1016.9 |
| 20260503182636 | 15 | 290 | 9.7 | 24.1 | 0.00 | 0.00 | 0.00 | 37 | 1017.0 |
| 20260503182357 | 15 | 269 | 8.0 | 19.3 | 0.00 | 0.00 | 0.00 | 34 | 1016.9 |
| 20260503181635 | 14 | 321 | 9.7 | 19.3 | 0.00 | 0.00 | 0.00 | 33 | 1017.0 |
| 20260503181136 | 15 | 236 | 9.7 | 19.3 | 0.00 | 0.00 | 0.00 | 36 | 1016.9 |
| 20260503180636 | 15 | 281 | 8.0 | 19.3 | 0.00 | 0.00 | 0.00 | 34 | 1017.0 |
| 20260503180130 | 15 | 266 | 8.0 | 17.7 | 0.00 | 0.00 | 0.00 | 35 | 1016.9 |
| 20260503175630 | 15 | 309 | 9.7 | 20.9 | 0.00 | 0.00 | 0.00 | 37 | 1017.0 |
| 20260503175355 | 14 | 298 | 12.9 | 22.5 | 0.00 | 0.00 | 0.00 | 35 | 1017.1 |
| 20260503174854 | 14 | 235 | 8.0 | 22.5 | 0.00 | 0.00 | 0.00 | 36 | 1017.1 |
| 20260503174129 | 15 | 301 | 6.4 | 19.3 | 0.00 | 0.00 | 0.00 | 38 | 1017.2 |
| 20260503173630 | 14 | 5 | 8.0 | 22.5 | 0.00 | 0.00 | 0.00 | 34 | 1017.2 |
| 20260503173129 | 14 | 19 | 8.0 | 22.5 | 0.00 | 0.00 | 0.00 | 38 | 1017.2 |
| 20260503172629 | 14 | 32 | 9.7 | 22.5 | 0.00 | 0.00 | 0.00 | 39 | 1017.2 |
| 20260503172129 | 13 | 349 | 12.9 | 22.5 | 0.00 | 0.00 | 0.00 | 35 | 1017.4 |
| 20260503171856 | 13 | 328 | 11.3 | 20.9 | 0.00 | 0.00 | 0.00 | 37 | 1017.5 |
| 20260503171355 | 13 | 333 | 9.7 | 24.1 | 0.00 | 0.00 | 0.00 | 38 | 1017.5 |
| 20260503170630 | 13 | 336 | 9.7 | 24.1 | 0.00 | 0.00 | 0.00 | 40 | 1017.5 |
| 20260503170129 | 13 | 292 | 8.0 | 19.3 | 0.00 | 0.00 | 0.00 | 37 | 1017.6 |
| 20260503160116 | 12 | 273 | 16.1 | 24.1 | 0.00 | 0.00 | 0.00 | 39 | 1018.2 |
| 20260503150615 | 11 | 293 | 8.0 | 25.7 | 0.00 | 0.00 | 0.00 | 41 | 1018.5 |
| 20260503150105 | 11 | 277 | 11.3 | 25.7 | 0.00 | 0.00 | 0.00 | 45 | 1018.5 |
| 20260503140106 | 10 | 313 | 14.5 | 29.0 | 0.00 | 0.00 | 0.00 | 44 | 1018.7 |
| 20260503131047 | 9 | 310 | 8.0 | 19.3 | 0.00 | 0.00 | 0.00 | 50 | 1018.4 |
| 20260503130547 | 9 | 332 | 8.0 | 17.7 | 0.00 | 0.00 | 0.00 | 49 | 1018.4 |